SCP
0 0 0 0 1 1 1 1 0 0 0 0 0 0 0 1 1 1 1 1 0 0 0 0 0 0 0 0 0 0 0 0 0 0 0 0 0 0 0 0 0 0 0
0 0 0 1 1 1 1 1 1 0 0 0 0 0 0 1 1 1 1 1 0 0 0 0 0 0 0 0 0 0 0 0 0 0 0 0 0 0 0 0 0 0 0
0 0 0 1 1 1 1 1 1 0 0 0 0 0 0 0 1 1 1 1 0 0 0 0 0 0 0 0 0 0 0 0 0 0 0 0 0 0 0 0 0 0 0
0 0 0 1 1 1 1 1 1 1 1 1 1 0 0 0 0 0 0 0 0 0 0 0 0 0 0 0 0 0 0 0 0 0 0 0 0 0 0 0 0 0 0
0 0 1 1 1 1 1 0 0 1 1 1 1 1 0 0 0 0 0 0 0 0 0 0 0 0 0 0 0 0 0 0 0 0 0 0 0 0 0 0 0 0 0
0 0 1 1 1 1 1 0 0 1 1 1 0 1 1 1 1 0 0 0 0 0 0 0 0 0 0 0 0 0 0 0 0 0 0 0 0 0 0 0 0 0 0
0 0 1 1 1 1 1 0 0 1 1 1 0 1 1 1 1 0 0 0 0 0 0 0 0 0 0 0 0 0 0 0 0 0 0 0 0 0 0 0 0 0 0
0 0 0 1 1 1 1 1 1 1 1 1 1 1 1 1 1 0 0 0 0 0 0 0 0 0 0 0 0 0 0 0 0 0 0 0 0 0 0 0 0 1 1
0 0 0 0 0 1 1 1 1 1 1 1 1 1 1 1 0 0 0 0 0 0 0 0 0 0 0 0 0 0 0 0 0 0 0 0 0 0 0 0 1 1 1
0 0 0 0 0 0 0 1 1 1 1 1 1 1 1 0 0 0 0 0 0 0 0 0 0 0 0 0 0 0 0 0 0 0 0 0 0 0 0 1 1 1 1
0 0 0 0 0 0 0 0 1 1 1 1 1 1 1 1 0 0 0 0 0 0 0 0 0 0 0 0 0 0 0 0 0 0 0 0 0 0 1 1 1 1 1
0 0 0 0 0 0 0 0 0 0 0 0 1 1 1 1 1 0 0 0 0 0 0 0 0 0 0 0 0 0 0 0 0 0 0 0 0 0 1 1 1 1 1
0 0 0 0 0 0 0 0 0 0 0 0 0 1 1 1 1 1 0 0 0 0 0 0 0 0 0 0 0 0 0 0 0 0 0 0 0 0 1 1 1 1 1
0 0 0 0 0 0 0 0 0 0 0 0 0 0 1 1 1 1 1 1 0 0 0 0 0 0 0 0 0 0 0 0 0 0 0 0 0 0 0 1 1 1 1
0 0 0 0 0 0 0 0 0 0 0 0 0 0 0 0 1 1 1 1 0 0 0 0 0 0 0 0 0 0 0 0 0 0 0 0 0 0 0 1 1 1 1
0 0 0 0 0 0 0 0 0 0 0 0 0 0 0 0 0 0 0 0 0 0 0 0 0 0 0 0 0 0 0 0 0 0 0 0 0 0 0 1 1 1 1
0 0 0 0 0 0 0 0 0 0 0 0 0 0 0 0 0 0 0 0 0 0 0 0 0 0 0 0 0 0 0 0 0 0 0 0 0 0 0 0 1 1 1
0 0 0 0 0 0 0 0 0 0 0 0 0 0 0 0 0 0 0 0 0 0 0 0 0 0 0 0 0 0 0 0 0 0 0 0 0 0 0 0 0 0 0
0 0 0 0 0 0 0 0 0 0 0 0 0 0 0 0 0 0 0 0 0 0 0 0 0 0 0 0 0 0 0 0 0 0 0 0 0 0 0 0 0 0 0
0 0 0 0 0 0 0 0 0 0 0 0 0 0 0 0 0 0 0 0 0 0 0 0 0 0 0 0 0 0 0 0 0 0 0 0 0 0 0 0 0 0 0
0 0 0 0 0 0 0 0 0 0 0 0 0 0 0 0 0 0 0 0 0 0 0 0 0 0 0 0 0 0 0 0 0 0 0 0 0 0 0 0 0 0 0
0 0 0 0 0 0 0 0 0 0 0 0 0 0 0 0 0 0 0 0 0 0 0 0 0 0 0 0 0 0 0 0 0 0 0 0 0 0 0 0 0 0 0
0 0 0 0 0 0 0 0 0 0 0 0 0 0 0 0 0 0 0 0 0 0 0 0 0 0 0 0 0 0 0 0 0 0 0 0 0 0 0 0 0 0 0
0 0 0 0 0 0 0 0 0 0 0 0 0 0 0 0 0 0 0 0 0 0 0 0 0 0 0 0 0 0 0 0 0 0 0 0 0 0 0 0 0 0 0
0 0 0 0 0 0 0 0 0 0 0 0 0 0 0 0 0 0 0 0 0 0 0 0 0 0 0 0 0 0 0 0 0 0 0 0 0 0 0 0 0 0 0
0 0 0 0 0 0 0 0 0 0 0 0 0 0 0 0 0 0 0 0 0 0 0 0 0 0 0 0 0 0 0 0 0 0 0 0 0 0 0 0 0 0 0
Wind_Speed
5 6 11 13 13 13 13 13 13 13 13 13 13 13 13 13 13 13 13 13 13 12 11 10 9 9 9 9 9 8 8 8 8 8 9 9 8 9 10 10 10 7 10
9 8 12 13 13 13 13 13 13 12 12 12 12 12 12 12 12 12 12 12 11 11 10 9 9 8 8 8 8 7 6 7 7 7 7 7 7 8 9 10 10 6 9
10 8 10 13 13 13 12 12 12 12 12 12 12 11 11 11 11 11 11 10 10 9 9 8 8 7 6 6 6 5 5 5 5 5 5 3 4 7 8 9 10 10 10
10 7 9 13 13 13 12 12 12 12 12 12 11 11 11 10 10 10 10 9 9 8 8 7 7 6 5 5 4 4 4 4 4 4 2 2 3 6 8 9 10 11 10
9 7 10 14 13 12 12 12 11 11 11 11 11 10 10 9 9 9 9 9 8 8 7 7 6 5 4 3 3 3 3 3 4 3 2 3 3 6 7 8 10 10 10
8 7 10 14 13 12 12 11 11 11 11 10 10 10 9 9 8 8 8 8 7 7 7 7 6 5 4 3 3 3 3 4 3 2 3 3 3 7 9 9 10 11 11
8 6 8 13 12 12 12 11 10 10 10 9 9 9 9 9 8 8 7 7 6 6 6 6 5 5 5 4 4 4 4 5 2 2 3 3 5 8 10 11 10 10 11
9 7 6 11 12 11 11 10 9 9 8 8 8 8 8 8 8 7 7 6 6 6 5 5 5 5 5 5 5 5 5 5 3 2 2 4 7 9 10 10 11 10 10
8 7 5 5 7 10 10 9 9 8 8 8 8 7 8 8 8 7 7 7 6 6 5 5 5 5 5 6 6 6 7 6 2 1 3 3 6 9 10 10 10 10 11
7 6 5 4 4 4 5 8 8 8 7 7 8 8 7 7 7 7 7 6 6 6 6 6 6 6 6 6 6 7 8 6 2 2 2 4 6 8 9 10 10 11 11
7 5 5 5 4 4 4 5 5 6 6 6 6 7 6 3 3 4 6 6 7 7 6 6 6 6 6 6 7 7 6 2 3 2 3 6 8 8 9 9 10 10 11
6 5 5 5 5 4 3 2 2 2 2 2 2 3 2 2 3 4 6 7 7 7 6 6 7 6 5 2 4 6 2 3 2 3 4 9 10 10 9 9 10 10 10
7 6 5 5 5 4 2 2 1 1 1 2 2 3 2 2 2 3 2 3 4 4 3 4 4 2 2 2 2 2 2 2 2 3 4 9 10 10 10 10 11 10 10
5 5 4 4 4 3 2 2 2 2 2 2 2 3 2 2 2 2 2 2 2 2 2 2 1 2 3 3 3 3 3 2 2 2 4 8 9 10 10 10 10 10 10
5 5 5 4 4 3 2 1 2 2 2 3 2 2 3 2 2 2 2 2 2 2 2 2 2 3 3 3 3 3 3 3 4 3 3 7 8 8 9 10 10 10 10
5 4 4 4 3 3 2 1 2 2 2 2 2 3 3 2 2 2 2 2 2 2 2 2 2 2 2 2 3 3 3 3 3 3 3 5 8 9 9 9 8 9 9
5 4 3 4 3 2 2 2 2 2 2 2 2 3 3 3 3 2 2 2 2 2 2 1 1 1 1 1 2 2 2 3 3 3 3 3 3 6 8 8 8 8 8
5 4 3 3 3 2 2 2 1 1 2 2 2 2 3 3 3 3 2 2 2 1 1 1 1 1 1 1 1 2 2 2 3 3 3 3 3 3 5 8 8 8 8
6 5 3 2 3 3 2 1 0 0 1 1 1 1 2 3 3 3 2 2 2 1 1 1 1 1 1 1 2 2 2 2 3 3 3 4 3 3 3 6 8 9 9
4 4 3 2 2 1 1 1 1 1 0 0 0 1 2 2 2 2 2 2 2 2 1 1 1 0 1 1 1 2 2 2 2 3 3 3 3 3 3 4 4 5 9
4 3 3 3 2 1 1 1 1 0 0 0 0 1 1 2 2 2 1 1 2 2 2 1 1 0 0 0 1 2 3 2 2 3 3 3 3 3 3 3 3 3 3
5 4 4 3 3 2 1 1 1 1 0 0 0 1 0 1 1 2 1 1 2 2 2 1 1 1 1 1 1 1 3 4 3 3 2 2 3 2 3 3 3 3 3
5 4 4 3 3 2 1 1 1 2 2 2 1 1 1 0 1 2 2 2 1 2 1 1 1 2 1 1 1 2 1 2 3 3 2 1 1 2 2 2 3 4 4
4 3 3 3 3 2 2 3 3 2 0 1 1 1 1 1 1 1 2 2 2 1 1 1 1 1 2 1 1 1 2 3 2 3 3 2 2 2 3 3 3 4 4
4 4 3 3 2 2 2 3 2 1 1 1 1 1 1 1 1 1 2 1 1 1 1 1 0 1 1 2 1 1 1 1 2 2 3 4 3 2 2 3 3 3 3
3 3 3 3 2 2 2 2 2 2 1 0 1 1 1 1 1 1 1 1 1 1 1 1 1 1 1 1 1 1 2 1 2 2 3 3 3 3 3 3 3 3 3
Wind_Direction
152 162 148 135 129 125 122 120 118 116 114 112 110 108 107 108 110 113 117 122 126 128 130 131 130 130 129 126 128 131 133 134 136 142 146 147 149 150 149 148 142 138 139
152 157 147 136 132 129 126 125 124 122 120 117 115 115 115 115 117 118 120 124 128 132 135 136 134 133 134 133 134 137 138 135 138 147 155 156 156 155 152 149 145 142 143
143 149 146 140 136 133 131 130 129 127 124 122 122 123 122 121 123 125 126 129 134 138 140 140 140 141 140 139 142 144 147 145 148 157 162 160 165 168 159 155 154 153 149
143 144 145 142 137 135 133 133 132 131 129 126 126 127 127 129 130 132 135 138 140 143 145 146 148 149 149 149 155 161 166 166 172 177 164 182 184 181 171 162 158 159 154
139 143 148 143 139 137 137 135 136 136 136 135 135 133 131 133 137 140 144 147 148 151 154 153 154 154 156 162 179 187 190 194 202 197 182 197 198 192 181 171 163 162 161
136 140 145 143 141 139 137 138 139 140 142 142 143 142 141 141 141 142 147 152 155 159 162 162 163 169 176 185 205 225 230 233 226 212 201 200 192 195 190 187 178 171 169
132 138 146 143 142 143 145 146 147 146 146 149 150 150 151 151 151 152 155 158 162 168 171 172 177 189 200 213 229 241 249 253 221 202 198 191 198 203 200 191 183 175 173
137 134 138 144 143 146 147 149 150 151 152 153 154 156 159 160 162 166 167 171 177 179 180 181 190 202 210 225 241 251 257 259 247 230 205 197 202 202 199 192 185 180 180
128 127 126 135 140 145 147 151 155 157 159 160 160 162 168 171 176 181 182 187 189 191 191 199 206 211 219 231 245 258 266 268 250 221 215 207 202 205 200 196 193 189 188
123 132 136 132 132 143 156 160 165 163 165 168 172 176 179 183 189 195 197 201 202 203 206 212 218 225 230 239 247 254 261 263 239 223 220 218 212 210 202 197 198 198 197
138 150 144 146 148 153 161 168 167 170 178 179 182 189 190 193 198 206 211 212 216 216 219 224 230 238 243 246 252 258 260 230 222 221 218 224 217 218 212 205 204 206 205
151 161 154 154 153 156 166 158 161 162 177 187 185 195 193 192 209 213 225 221 224 225 227 233 239 243 246 249 260 263 239 219 223 225 223 223 218 221 219 211 212 214 214
159 161 161 162 163 162 158 156 165 168 180 198 201 201 197 193 215 223 216 237 236 234 230 238 244 240 235 237 242 246 234 221 213 232 229 224 221 220 219 215 214 216 219
150 160 167 168 161 162 155 166 171 176 188 203 214 207 189 191 208 208 198 205 209 218 221 224 227 236 240 239 235 236 235 222 217 226 227 227 224 220 218 214 215 219 222
146 162 165 157 149 153 148 189 177 189 196 205 201 199 183 184 198 197 197 197 206 205 206 209 215 226 231 235 240 242 235 228 225 221 230 231 229 226 223 222 219 221 225
148 150 154 144 149 149 155 199 201 195 195 193 198 198 185 184 188 182 185 196 210 208 211 206 209 214 222 233 252 251 233 229 228 223 221 232 235 234 232 229 227 226 226
150 145 147 140 140 149 169 209 199 193 186 195 203 198 183 184 182 175 175 194 214 205 195 188 197 195 223 249 265 264 248 233 226 224 220 222 232 236 230 229 230 227 229
148 142 149 142 143 170 205 214 204 185 182 191 191 192 188 186 181 171 181 197 207 179 158 165 167 179 252 266 270 275 267 252 243 228 221 223 222 227 230 228 225 226 228
150 147 143 125 147 188 200 187 146 155 174 186 176 191 198 193 183 174 185 194 181 154 154 188 162 169 204 253 259 261 266 254 248 241 234 227 219 217 219 228 227 227 226
141 140 134 118 145 172 129 80 52 47 63 98 160 209 189 201 193 175 180 190 165 143 141 170 178 197 194 224 283 299 283 268 254 237 236 236 226 221 223 229 225 229 228
132 133 141 140 151 114 80 96 85 334 327 356 288 245 194 190 182 160 141 172 154 155 170 172 158 167 262 48 39 334 319 299 268 250 233 231 237 234 224 227 224 223 232
150 153 150 157 155 150 174 172 169 184 220 238 317 353 319 158 152 147 138 159 159 143 132 148 129 143 266 99 127 45 338 333 320 288 254 228 230 230 228 228 216 212 221
154 160 157 159 150 150 144 97 66 43 26 15 6 351 330 121 145 135 142 144 148 139 158 184 159 152 217 279 153 152 165 250 299 306 286 269 240 233 240 232 220 220 215
161 143 136 142 137 134 120 111 115 106 55 265 260 273 312 12 83 125 138 144 151 150 167 211 168 175 173 245 276 205 196 190 202 301 314 302 277 256 250 249 235 230 222
146 143 143 139 135 137 125 126 121 123 218 281 333 349 343 343 7 117 140 141 149 159 171 190 184 184 183 199 215 234 253 254 205 205 282 306 311 282 262 252 244 243 237
147 148 142 132 138 123 109 116 129 145 152 104 354 332 323 329 344 22 110 131 159 171 187 201 181 179 210 213 222 208 201 213 232 212 237 269 282 283 279 265 252 247 243